Погода в Орто-Нахаре

Россия / Республика Саха (Якутия)     60°49′15″N   114°19′24″E
темп.,
°C
ветер,
м/с
пор.,
м/с
влажн.,
%
обл.,
%
осадки,
мм/ч
давл.,
гПа
погр.,
м
26 января, вт
вт2600:00−39ссв119946 0.0 104218
03:00−40ссв129961 0.0 104218
06:00−40ссв119971 0.0 104218
09:00−41ссв119886 0.0 104218
12:00−38ссв119687 0.0 104379
15:00−36ссв129091 0.0 1042264
18:00−39с1197100 0.0 104318
21:00−40с1197100 0.0 104518
27 января, ср
ср2700:00−40с1197100 0.0 104518
03:00−41ссз1197100 0.0 104518
06:00−40ссз1197100 0.0 104518
09:00−41сз1197100 0.0 104618
12:00−39з1195100 0.0 104698
15:00−36з129098 0.0 1045282
18:00−39юз119689 0.0 104518
21:00−41зюз119683 0.0 104518
28 января, чт
чт2800:00−41зюз119755 0.0 104418
03:00−42зюз119867 0.0 104218
06:00−42ююв019888 0.0 104018
09:00−43в119977 0.0 103918
12:00−39всв129668 0.0 103695
15:00−36всв239471 0.0 1033205
18:00−40св229963 0.0 103220
21:00−41св229968 0.0 103124
29 января, пт
пт2900:00−42св239950 0.0 103038
03:00−42св239956 0.0 103040
06:00−42св239969 0.0 103051
09:00−41св229882 0.0 103055
12:00−38св249899 0.0 1030206
15:00−35св259699 0.0 1029317
18:00−39св2399100 0.0 103046
21:00−40св229994 0.0 103134
30 января, сб
сб3000:00−41св229981 0.0 103224
03:00−42св129981 0.0 103119
06:00−43ссв119888 0.0 103118
09:00−43ссв119887 0.0 103118
12:00−40ссв119485 0.0 1030122
15:00−37с118887 0.0 1029278
18:00−41с119666 0.0 102918
21:00−42ссз119757 0.0 103018